Waarnemingen

Advertentie
Mijn weer
Lycksele, Zweden (2261): temperatuur & dauwpunt: 11.01.2018 08:00:00 - 17.01.2018 08:00:00 (CET)Lycksele, Zweden (2261): windsnelheid & windstoten: 11.01.2018 08:00:00 - 17.01.2018 08:00:00 (CET)Lycksele, Zweden (2261): windrichting: 11.01.2018 08:00:00 - 17.01.2018 08:00:00 (CET)Lycksele, Zweden (2261): luchtdruk: 11.01.2018 08:00:00 - 17.01.2018 08:00:00 (CET)Lycksele, Zweden (2261): zicht: 11.01.2018 08:00:00 - 17.01.2018 08:00:00 (CET)Lycksele, Zweden (2261): neerslag: 11.01.2018 08:00:00 - 17.01.2018 08:00:00 (CET)
Datum & Tijd tt [°C] td [°C] ff [km/u] ff [kn] fx [km/u] fx [kn] dd ppp [hPa] vv [km] rr [mm]
17.01.2018 08:00:00 - - - - - - - - - -
17.01.2018 07:00:00 -8,0 -10,2 16 9 27 15 OZO 999,1 39 0,0
17.01.2018 06:00:00 -7,9 -9,5 18 10 31 17 OZO 998,6 16 0,0
17.01.2018 05:00:00 -7,7 -9,1 21 12 36 20 OZO 998,2 - 0,0
17.01.2018 04:00:00 -7,3 -8,8 24 13 36 19 OZO 997,8 20 0,0
17.01.2018 03:00:00 -7,3 -8,9 22 12 41 22 OZO 997,2 19 0,0
17.01.2018 02:00:00 -7,3 -8,9 21 11 36 20 OZO 997,1 - 0,0
17.01.2018 01:00:00 -7,4 -9,0 22 12 33 18 OZO 997,0 4,7 0,0
17.01.2018 00:00:00 -7,8 -9,6 18 10 32 17 OZO 996,7 22 0,0
16.01.2018 23:00:00 -8,0 -9,9 18 10 36 19 OZO 996,5 24 0,0
16.01.2018 22:00:00 -7,8 -9,6 26 14 36 19 OZO 995,7 - 0,0
16.01.2018 21:00:00 -7,9 -9,0 20 11 39 21 OZO 995,9 6 0,0
16.01.2018 20:00:00 -8,0 -9,2 26 14 39 21 OZO 995,7 5 0,0
16.01.2018 19:00:00 -7,9 -9,1 28 15 53 29 OZO 995,9 - 0,0
16.01.2018 18:00:00 -7,8 -8,9 33 18 53 28 OZO 995,6 1,6 0,0
16.01.2018 17:00:00 -7,5 -8,6 37 20 52 28 OZO 995,2 1,4 0,0
16.01.2018 16:00:00 -7,1 -8,0 33 18 50 27 OZO 995,6 1,2 0,0
16.01.2018 15:00:00 -6,8 -7,9 35 19 53 28 OZO 996,0 1,2 0,0
16.01.2018 14:00:00 -6,3 -7,4 31 17 46 25 OZO 996,1 1,7 0,0
16.01.2018 13:00:00 -6,1 -7,2 26 14 45 24 OZO 996,6 - 0,0
16.01.2018 12:00:00 -5,7 -6,8 32 17 51 27 ZO 996,6 1,3 0,0
16.01.2018 11:00:00 -5,1 -5,9 29 15 55 30 OZO 996,9 - 0,0
16.01.2018 10:00:00 -3,6 -5,0 33 18 51 28 ZO 997,0 5 0,0
16.01.2018 09:00:00 -3,5 -4,8 29 15 51 28 ZO 997,2 4,0 0,0
16.01.2018 08:00:00 -3,3 -4,6 29 16 48 26 ZO 997,0 4,0 0,0
16.01.2018 07:00:00 -3,1 -4,5 30 16 50 27 ZO 997,3 4,6 0,0
16.01.2018 06:00:00 -3,1 -4,5 29 15 49 27 ZO 997,7 4,6 0,0
16.01.2018 05:00:00 -3,0 -4,6 33 18 50 27 ZO 998,1 4,6 0,0
16.01.2018 04:00:00 -2,7 -4,1 31 17 51 28 ZO 999,1 3,5 0,0
16.01.2018 03:00:00 -2,3 -4,2 27 15 45 24 ZO 1000,0 8 0,0
16.01.2018 02:00:00 -1,9 -4,7 27 15 65 35 ZO 1000,9 9 0,0
16.01.2018 01:00:00 -1,7 -4,9 29 15 64 35 ZZO 1001,5 16 0,0
16.01.2018 00:00:00 -1,6 -5,3 31 17 54 29 ZZO 1002,1 16 0,0
15.01.2018 23:00:00 -1,9 -4,1 23 12 61 33 ZZO 1003,1 16 0,0
15.01.2018 22:00:00 -1,9 -5,1 26 14 56 30 ZZO 1003,6 18 0,0
15.01.2018 21:00:00 -2,1 -5,6 21 11 47 26 ZZO 1005,0 22 0,0
15.01.2018 20:00:00 -2,2 -5,5 28 15 50 27 ZZO 1005,6 10 0,0
15.01.2018 19:00:00 -2,3 -5,4 24 13 45 25 ZZO 1006,9 17 0,0
15.01.2018 18:00:00 -2,3 -5,4 24 13 51 28 ZZO 1007,6 18 0,0
15.01.2018 17:00:00 -2,4 -5,2 22 12 47 26 ZZO 1008,6 19 0,0
15.01.2018 16:00:00 -2,3 -5,0 21 12 55 30 ZZO 1009,5 30 0,0
15.01.2018 15:00:00 -2,3 -5,3 25 14 48 26 ZZO 1010,3 13 0,0
15.01.2018 14:00:00 -2,4 -5,1 17 9 45 24 ZZO 1011,1 39 0,0
15.01.2018 13:00:00 -2,3 -5,4 18 10 45 25 ZZO 1011,8 42 0,0
15.01.2018 12:00:00 -2,3 -6,0 26 14 52 28 ZZO 1012,8 15 0,0
15.01.2018 11:00:00 -2,5 -5,8 16 9 45 24 ZZO 1013,7 44 0,0
15.01.2018 10:00:00 -3,0 -5,8 14 8 46 25 ZZO 1014,5 46 0,0
15.01.2018 09:00:00 -3,1 -6,1 18 10 40 21 ZZO 1015,1 21 0,0
15.01.2018 08:00:00 -3,6 -6,9 19 10 40 21 Z 1015,5 26 0,0
15.01.2018 07:00:00 -3,9 -7,0 23 12 46 25 ZZO 1016,0 27 0,0
15.01.2018 06:00:00 -4,3 -7,4 18 10 39 21 ZZO 1016,7 39 0,0
15.01.2018 05:00:00 -4,8 -8,0 18 10 40 22 ZZO 1017,5 23 0,0
15.01.2018 04:00:00 -5,2 -8,1 19 10 36 20 ZZO 1018,5 24 0,0
15.01.2018 03:00:00 -5,3 -8,2 17 9 41 22 Z 1019,7 29 0,0
15.01.2018 02:00:00 -5,4 -8,1 21 11 40 22 Z 1020,5 11 0,0
15.01.2018 01:00:00 -5,6 -8,0 16 8 35 19 ZZO 1020,9 19 0,0
15.01.2018 00:00:00 -5,8 -8,2 18 10 43 23 ZZO 1021,5 8 0,0
14.01.2018 23:00:00 -5,9 -8,0 19 11 42 23 Z 1022,0 15 0,0
14.01.2018 22:00:00 -5,9 -8,0 16 8 35 19 ZZO 1022,6 19 0,0
14.01.2018 21:00:00 -6,0 -8,1 18 10 37 20 Z 1023,0 14 0,0
14.01.2018 20:00:00 -5,9 -7,6 15 8 32 17 Z 1023,5 39 0,0
14.01.2018 19:00:00 -5,9 -7,3 14 8 32 17 ZZO 1024,3 35 0,0
14.01.2018 18:00:00 -5,9 -7,0 13 7 34 18 ZZO 1025,1 30 0,0
14.01.2018 17:00:00 -5,9 -7,0 14 8 29 16 ZZO 1025,7 40 0,0
14.01.2018 16:00:00 -6,0 -6,8 12 6 21 11 ZZO 1026,7 50 0,0
14.01.2018 15:00:00 -6,5 -7,2 8 4 17 9 Z 1027,7 39 0,0
14.01.2018 14:00:00 -6,9 -7,6 7 4 20 11 Z 1028,5 35 0,0
14.01.2018 13:00:00 -7,5 -8,3 6 4 14 8 Z 1029,2 39 0,0
14.01.2018 12:00:00 -7,9 -8,7 7 4 17 9 Z 1030,1 35 0,0
14.01.2018 11:00:00 -8,4 -9,2 3 1 8 5 Z 1030,8 41 0,0
14.01.2018 10:00:00 -15,8 -17,5 0 0 2 1 N 1031,5 11 0,0
14.01.2018 09:00:00 -17,7 -19,5 0 0 1 1 N 1031,6 34 0,0
14.01.2018 08:00:00 -19,1 -21,1 0 0 2 1 N 1032,4 11 0,0
14.01.2018 07:00:00 -20,9 -23,0 0 0 2 1 N 1032,9 17 0,0
14.01.2018 06:00:00 -22,9 -25,3 0 0 1 1 N 1033,5 14 0,0
14.01.2018 05:00:00 -24,5 -27,0 0 0 1 0 N 1034,2 1,8 0,0
14.01.2018 04:00:00 -26,6 -29,3 0 0 1 1 N 1035,1 1,9 0,0
14.01.2018 03:00:00 -26,9 -29,6 0 0 1 1 N 1035,4 19 0,0
14.01.2018 02:00:00 -26,5 -29,2 0 0 0 0 N 1035,5 6 0,0
14.01.2018 01:00:00 -26,3 -29,0 0 0 1 1 N 1035,9 17 0,0
14.01.2018 00:00:00 -26,4 -29,1 0 0 1 1 N 1036,3 13 0,0
13.01.2018 23:00:00 -25,3 -27,7 0 0 0 0 N 1036,5 50 0,0
13.01.2018 22:00:00 -25,4 -28,0 0 0 1 1 N 1036,5 50 0,0
13.01.2018 21:00:00 -24,3 -26,8 0 0 1 0 N 1036,7 25 0,0
13.01.2018 20:00:00 -23,8 -26,3 0 0 0 0 N 1037,0 46 0,0
13.01.2018 19:00:00 -23,0 -25,4 0 0 0 0 N 1037,1 23 0,0
13.01.2018 18:00:00 -21,6 -23,8 0 0 1 1 N 1037,2 24 0,0
13.01.2018 17:00:00 -19,9 -21,9 0 0 1 1 N 1037,3 16 0,0
13.01.2018 16:00:00 -18,7 -20,7 0 0 1 0 N 1037,2 1,7 0,0
13.01.2018 15:00:00 -18,1 -20,0 0 0 1 0 N 1037,2 - 0,0
13.01.2018 14:00:00 -17,9 -19,8 0 0 1 1 N 1037,4 0,8 0,0
13.01.2018 13:00:00 -18,2 -20,1 0 0 1 1 N 1037,7 0,5 0,0
13.01.2018 12:00:00 -18,8 -20,7 0 0 1 1 N 1038,1 1,7 0,0
13.01.2018 11:00:00 -19,0 -20,9 0 0 1 0 N 1038,3 - 0,0
13.01.2018 10:00:00 -19,3 -21,3 0 0 1 1 N 1038,4 - 0,0
13.01.2018 09:00:00 -20,2 -22,2 0 0 1 0 N 1038,5 0,5 0,0
13.01.2018 08:00:00 -21,2 -23,3 0 0 0 0 N 1038,6 50 0,0
13.01.2018 07:00:00 -22,7 -24,9 0 0 1 0 N 1038,8 50 0,0
13.01.2018 06:00:00 -22,9 -25,3 0 0 1 0 N 1038,8 50 0,0
13.01.2018 05:00:00 -22,9 -25,3 0 0 1 1 N 1038,9 50 0,0
13.01.2018 04:00:00 -22,7 -24,9 0 0 1 1 N 1039,0 50 0,0
13.01.2018 03:00:00 -23,0 -25,4 0 0 1 1 N 1039,2 50 0,0
13.01.2018 02:00:00 -22,8 -25,2 0 0 2 1 N 1039,3 50 0,0
13.01.2018 01:00:00 -22,6 -25,0 0 0 5 3 N 1039,5 50 0,0
13.01.2018 00:00:00 -22,2 -24,4 0 0 1 1 N 1039,5 50 0,0
12.01.2018 23:00:00 -22,0 -24,2 0 0 1 1 N 1039,6 50 0,0
12.01.2018 22:00:00 -21,6 -23,7 0 0 2 1 N 1038,9 50 0,0
12.01.2018 21:00:00 -21,3 -23,4 0 0 2 1 N 1038,8 50 0,0
12.01.2018 20:00:00 -20,8 -22,9 0 0 2 1 N 1038,9 36 0,0
12.01.2018 19:00:00 -20,1 -22,1 0 0 3 2 N 1038,3 36 0,0
12.01.2018 18:00:00 -19,0 -21,0 0 0 1 1 N 1038,0 47 0,0
12.01.2018 17:00:00 -18,1 -20,0 0 0 1 1 N 1038,2 41 0,0
12.01.2018 16:00:00 -17,7 -19,5 0 0 2 1 N 1038,0 45 0,0
12.01.2018 15:00:00 -18,1 -20,0 0 0 1 1 N 1037,9 50 0,0
12.01.2018 14:00:00 -19,0 -21,0 0 0 1 1 N 1037,8 50 0,0
12.01.2018 13:00:00 -20,3 -22,4 0 0 2 1 N 1037,5 49 0,0
12.01.2018 12:00:00 -21,0 -23,1 0 0 2 1 N 1037,2 50 0,0
12.01.2018 11:00:00 -21,7 -23,9 0 0 2 1 N 1037,1 50 0,0
12.01.2018 10:00:00 -22,9 -25,3 0 0 4 2 N 1037,0 50 0,0
12.01.2018 09:00:00 -24,0 -26,5 0 0 2 1 N 1036,7 50 0,0
12.01.2018 08:00:00 -24,4 -26,9 0 0 8 4 N 1036,3 50 0,0
12.01.2018 07:00:00 -25,0 -27,4 3 2 6 3 NW 1035,8 50 0,0
12.01.2018 06:00:00 -26,8 -29,5 0 0 0 0 N 1035,6 50 0,0
12.01.2018 05:00:00 -27,8 -30,6 0 0 0 0 N 1035,8 50 0,0
12.01.2018 04:00:00 -28,1 -30,9 0 0 0 0 N 1035,6 50 0,0
12.01.2018 03:00:00 -28,3 -31,1 0 0 1 1 N 1035,3 50 0,0
12.01.2018 02:00:00 -28,4 -31,2 0 0 0 0 N 1034,8 50 0,0
12.01.2018 01:00:00 -29,0 -31,9 0 0 0 0 N 1034,8 50 0,0
12.01.2018 00:00:00 -29,4 -32,3 0 0 0 0 N 1034,5 50 0,0
11.01.2018 23:00:00 -29,4 -32,3 0 0 0 0 N 1034,4 50 0,0
11.01.2018 22:00:00 -29,1 -32,0 0 0 0 0 N 1034,1 50 0,0
11.01.2018 21:00:00 -28,9 -31,8 0 0 0 0 N 1033,6 50 0,0
11.01.2018 20:00:00 -28,3 -31,1 0 0 0 0 N 1033,2 50 0,0
11.01.2018 19:00:00 -27,8 -30,4 0 0 1 1 N 1032,9 19 0,0
11.01.2018 18:00:00 -27,6 -30,4 0 0 1 0 N 1032,2 50 0,0
11.01.2018 17:00:00 -27,2 -29,9 0 0 0 0 N 1031,6 50 0,0
11.01.2018 16:00:00 -26,6 -29,3 0 0 0 0 N 1031,6 50 0,0
11.01.2018 15:00:00 -25,5 -28,1 0 0 1 0 N 1031,5 33 0,0
11.01.2018 14:00:00 -25,1 -27,7 0 0 0 0 N 1031,1 50 0,0
11.01.2018 13:00:00 -24,4 -26,9 0 0 0 0 N 1030,8 48 0,0
11.01.2018 12:00:00 -24,9 -27,3 0 0 0 0 N 1030,6 50 0,0
11.01.2018 11:00:00 -25,7 -28,3 0 0 0 0 N 1030,7 50 0,0
11.01.2018 10:00:00 -25,9 -28,5 0 0 0 0 N 1030,4 47 0,0
11.01.2018 09:00:00 -25,9 -28,5 0 0 0 0 N 1029,9 27 0,0
11.01.2018 08:00:00 -25,4 -28,0 0 0 0 0 N 1029,4 37 0,0

tt = temperatuur
td = dauwpunt
ff = windsnelheid
fx = windstoten
dd = windrichting
ppp = luchtdruk
vv = zicht
rr = neerslag

Weerstations in de omgeving